Погода в Териберке

Хотите узнать прогноз погоды в Териберке? Тогда Вам сюда: Погода в Териберке

Поиск расширенной информации на нашем сайте:

Полезная информация:

Новости сайта



02.01.2020
Опубликован Долгосрочный прогноз погоды по городам России и ближнего зарубежья на январь 2020 года.
Карты: Прогноз на январь и февраль 2020 года, Сравнение прогнозируемой аномалии приземной температуры воздуха на январь 2020 года по разным моделям.




Погода в Териберке - сегодня

Время (UTC), дата Ветер
(°,м/с) 
Видим.   Явления Облачность Т
(°С)
Тd
(°С)
f(%) Тe
(°С)
Pmin
(гПа)
dP
(гПа)
Po
(мм)
O2
(г/м3)
Тmin Tmax R s Состояние
почвы
15 29.11.20 200 (Ю) 11-14{17}  20000 м    4/3 600 м средняя 
[Sc|Ac lent]
-2.6 -5.2 82 -8  1022  -0.8  764  311           
18 29.11.20 220 (ЮЗ) 16-19{19}  20000 м    6/3 600 м средняя, верхняя 
[Sc|Ac trans|Ci]
-2.3 -4.9 82 -9  1020.4  -1.6  762  310    -1.3       
21 29.11.20 210 (ЮЗ) 14-18{18}  20000 м    6/3 1000 м средняя 
[Sc|Ac trans]
-2.2 -4.5 84 -9  1019.5  -0.9  762  310           
00 30.11.20 220 (ЮЗ) 14-22{22}  20000 м    8/3 600 м средняя 
[Sc|Ac trans]
-1.6 -4.2 82 -8  1018.8  -0.7  761  309           
03 30.11.20 220 (ЮЗ) 17-22{23}  20000 м    8/3 600 м средняя 
[Sc|Ac lent]
-0.6 -3.3 82 -7  1017.2  -1.5  760  307  -2.7         
06 30.11.20 210 (ЮЗ) 13-18{23}  20000 м    8/3 600 м средняя 
[Sc|Ac lent]
-0.7 -3.4 82 -7  1016.2  -1  759  307  -2.5      <0.5  мокрый или
старый снег
50-90% 
09 30.11.20 220 (ЮЗ) 13-18{22}  20000 м    6/3 300 м средняя, верхняя 
[Sc|Ac trans|Ci]
-0.5 -3.2 82 -6  1015.2  -1  759  307           
12 30.11.20 210 (ЮЗ) 14-18{24}  20000 м    6/1 300 м средняя, верхняя 
[Sc|Ac trans|Cs]
-1.5 -4.3 81 -8  1014.4  -0.9  758  308           
15 30.11.20 200 (Ю) 8-12{22}  20000 м    8/3 600 м кучево-дожд., средняя, верхняя 
[Cb cap|Ac trans|Cs]
-1.4 -4.6 79 -6  1013.9  -0.4  758  307           
18 30.11.20 200 (Ю) 14-18{20}  20000 м    8/0 средняя, верхняя 
[Ac trans|Cs]
-1.8 -4.7 81 -8  1011.4  -2.5  756  307    -0.3       
21 30.11.20 200 (Ю) 10-13{20}  20000 м    5/0 средняя, верхняя 
[Ac trans|Ci sp]
-1.9 -4.8 81 -7  1011  -0.4  755  307           
00 01.12.20 210 (ЮЗ) 9-14{17}  20000 м    9/3 1000 м средняя, верхняя 
[Sc|Ac As|Ci sp]
-0.7 -3.3 83 -5  1009.4  -1.6  754  305           
03 01.12.20 200 (Ю) 9-13{16}  20000 м    8/3 600 м средняя, верхняя 
[Sc|Ac trans|Ci sp]
-0.3 -3 82 -5  1008.3  -1.1  753  304  -2.2         
06 01.12.20 220 (ЮЗ) 12-15{16}  20000 м    8/1 1000 м средняя, верхняя 
[Sc|Ac trans|Cs]
+0 -2.7 82 -5  1006.9  -1.4  752  303  -2.2      <0.5  мокрый или
старый снег
50-90% 
09 01.12.20 230 (ЮЗ) 12-17{18}  20000 м    8/6 400 м кучево-дожд., верхняя 
[Cb cap|Ci sp]
+0.4 -2.7 80 -5  1006.2  -0.7  752  303           
12 01.12.20 230 (ЮЗ) 10-13{17}  20000 м  в посл. час ливневой дождь  10/4 300 м кучево-дожд., средняя 
[Cb cap|Ac und]
+0.2 -2.1 85 -5  1006.2  752  303           
15 01.12.20 240 (ЮЗ) 8-11{14}  10 км  слаб. ливневой снег  10/10 400 м кучево-дожд. 
[Cb cap]
-0.1 -1.5 90 -4  1007.3  1.1  753  304      0.0     
18 01.12.20 260 (З) 7-9{12}  10 км  слаб. ливневой снег  9/9 400 м кучево-дожд. 
[Cb cap]
+0.2 -0.5 95 -4  1009.2  1.9  754  304    +0.5  0.0     
21 01.12.20 320 (СЗ) 11-13{15}  20000 м  {ливн. осадки}  9/5 600 м кучево-дожд., средняя 
[Cb cap|Ac trans]
+2.5 -4.2 61 -2  1012.4  3.2  756  303           
00 02.12.20 280 (З) 10-13{15}  20000 м  {ливн. осадки}  3/1 600 м верхняя 
[Sc|Ci sp]
+1 -3.9 70 -4  1015.5  3.1  759  305           
03 02.12.20 250 (З) 7-8{15}  20000 м    3/3 600 м 
[Sc]
-1.7 -6.1 72 -6  1017.2  1.6  760  309  -1.9    0.0     
06 02.12.20 250 (З) 7-9{11}  20000 м    4/1 600 м верхняя 
[Sc|Cc]
-3.2 -8.3 68 -8  1017.9  0.7  761  311  -3.6    0.0  <0.5  мокрый или
старый снег
50-90% 
09 02.12.20 210 (ЮЗ) 6-8{11}  20000 м    6/1 600 м верхняя 
[Sc|Ci sp]
-4.8 -8.5 75 -9  1017.6  -0.3  760  313           
12 02.12.20 210 (ЮЗ) 11-16{16}  20000 м    9/3 600 м средняя 
[Sc|Ac trans]
-2.5 -5.1 82 -8  1015.3  -2.3  759  309           
15 02.12.20 200 (Ю) 11-16{19}  20000 м    9/3 600 м средняя 
[Sc|Ac trans]
-0.9 -4.5 77 -6  1012.3  -2.9  756  306           
Время (UTC), дата Ветер
(°,м/с) 
Видим.   Явления Облачность Т
(°С)
Тd
(°С)
f(%) Тe
(°С)
Pmin
(гПа)
dP
(гПа)
Po
(мм)
O2
(г/м3)
Тmin Tmax R s Состояние
почвы

Для получения пояснительной информации подведите курсор к названию столбца.

ПОГОДА в Териберке - архив

Всё, что Вы хотите узнать о погоде в Териберке - удобно и подробно!

Выберите нужную дату (начиная с 1 января 2019* года) и нажмите кнопку "Найти".
Будут отображены архивные сводки погоды по пункту Териберка, начиная с указанной даты.


Отображать данные в формате CSV (для использования в таблицах Excel)


Внимание! Наш архив погоды предназначен исключительно для личного некоммерческого использования в познавательных целях. Если Вам необходимы официальные справки о состоянии погоды (для производственных, юридических, коммерческих и т.п. целей), обращайтесь в органы Росгидромета.

*Примечание: данная дата относится к архиву по метеостанциям СССР (Россия, СНГ, Балтия).
Архив по метеостанциям Зарубежной Европы и Азии (кроме Китая) хранится 10 дней, по другим регионам земного шара (Китай, Африка, Америка, Австралия, Океания) - 1 день.

Териберка - район местоположения метеостанции


Название, широта, долгота, высота метеостанции:
Териберка 69.2°ш. 35.1°д. 30 м над ур. моря [Российская Федерация]

Дополнительная информация

В oтличие oт бoльшинства пoгoдных сайтoв мы публикуем пoдрoбную метеoинфoрмацию в детальнoм прoфессиoнальнoм фoрмате.

Характеристики температуры и влажнoсти вoздуха измеряются на высoте 2 м в тени вдали oт зданий и деревьев.
Скoрoсть ветра измеряется на высoте 10 м (на урoвне рoста челoвека скoрoсть ветра ниже в 1.5-2 раза). Если метеoстанция нахoдится в гoрoде или в лесу, тo скoрoсть ветра занижена на 2-4 м/с пo сравнению с oткрытым местoм. Скoрoсть ветра над акватoриями крупных рек и oзёр, а также на вершинах хoлмoв на 2-5 м/с выше, чем в oбычных услoвиях.
Атмoсфернoе давление в разных тoчках местнoсти мoжет значительнo oтличаться oт давления на метеoстанции, в зависимoсти oт услoвий рельефа (при пoдъёме на 10 м давление пoнижается примернo на 1 мм рт.ст.).